Utilitzem cookies pròpies i de tercers per millorar la seva experiència i els nostres serveis,analitzant la navegació en el nostre Lloc Web. Si continua navegant, vostè està acceptant el seu ús. Podeu obtenir més informació a la nostra Política de cookies. OK

En viu: El Trail 55 Km

El Trail 55 Km

Resultats provisionals

Potser que algun punt de control no tingui connexió a internet o la tingui deficient.

En aquest cas els passos no es podran visualitzar en directe i aniran apareixent a mesura que siguin transmesos des dels punts de control.

CASTELL DE MILANY - Intermig


17
Pendents

261
Han passat

Homes

# - Posició P.C. - Participant Temps Dorsal

1 - 1 - LLUíS RUIZ OLLER 02:45:57 1331

2 - 2 - MARTI LAZARO CORDERO 02:45:58 1318

3 - 3 - NIL GAJA BALLARÓ 02:58:09 1080

4 - 4 - JORDI DELGADO SANGLAS 03:02:42 1062

5 - 5 - DANI AGUIRRE ARDANAZ 03:09:37 1227

6 - 6 - GUILLEM ALBA GARCIA 03:09:46 1105

7 - 7 - DAVID TERUEL HUGUET 03:10:55 1327

8 - 8 - ALBERT GARCIA COBOS 03:12:34 1287

9 - 9 - JOEL VALLDOSERA SáNCHEZ 03:15:32 1044

10 - 10 - ARNAU AMADÓ BASSOLS 03:16:17 1165

11 - 11 - JESúS ÁLVAREZ MORALES 03:18:24 1245

12 - 12 - DAVID SEREROLS TORRAS 03:19:49 1017

13 - 13 - DANI FLORES HERNANDEZ 03:22:26 1306

14 - 14 - PAU CASTANYER BENAVENT 03:22:55 1161

15 - 15 - ABEL BELTRAN CAMPILLO 03:23:26 1211

16 - 16 - DANIEL ALMONACID VICTORIANO 03:24:12 1015

17 - 17 - NAïM BAULENAS SANGLAS 03:26:39 1202

18 - 18 - ALBERT SÁNCHEZ CRIBALLÉS 03:28:20 1134

19 - 20 - FRANCESC ROIG 03:29:52 1051

20 - 21 - MIQUEL AULADELL DORDAL 03:30:26 1304

21 - 22 - CRISTIAN LOPEZ REYES 03:30:51 1056

22 - 23 - CRISTIAN TERINGUER CANELA 03:34:46 1157

23 - 24 - ERIC NAVARRO NAJAR 03:35:41 1006

24 - 25 - JORDI TORRENT PARCET 03:35:51 1210

25 - 26 - OSCAR PEREZ MILLAN 03:35:55 1186

26 - 28 - GERARD CIURANS TIRADO-MIGUEIZ 03:36:45 1226

27 - 29 - JORDI ALEMANY QUINTANA 03:37:37 1336

28 - 30 - UNAI ARTETA CASTELAR 03:38:00 1321

29 - 31 - XAVI BERNAL BAENA 03:38:38 1252

30 - 32 - AITOR LóPEZ ALCAY 03:39:19 1335

31 - 33 - GERARD SALARICH CROSAS 03:40:02 1146

32 - 34 - VICENS RIOS GALLART 03:40:15 1022

33 - 36 - JOSEP ZANUY 03:44:05 1187

34 - 37 - ENRIC SERRATOSA SOLà 03:45:48 1236

35 - 38 - JOSEP MORENO CARRERA 03:45:52 1145

36 - 39 - XAVIER MIRANDA MIRANDA BEGUE 03:46:48 1083

37 - 40 - JORDI CASANOVAS SABARIEGO 03:47:08 1269

38 - 41 - ROGER PEIX SOLER 03:47:47 1033

39 - 44 - ALBERT FABRé LLORENS 03:48:43 1191

40 - 45 - CARLES VIDAL BARRERA 03:49:09 1103

41 - 46 - CARLES AMETLLER SULA 03:49:33 1128

42 - 47 - MIQUEL MUZáS ESPUNY 03:50:08 1205

43 - 48 - RAMON CASERRAS GUERRERO 03:52:37 1153

44 - 49 - ORIOL SALA PUIGDERRAJOLS 03:52:50 1119

45 - 50 - ALEIX MORERA ROCA 03:53:15 1288

46 - 51 - JORDI PLANS CONTEL 03:53:23 1117

47 - 52 - CAIN CHRISTOFOROU 03:53:55 1201

48 - 53 - SERGIO LEAL LOPEZ 03:56:58 1276

49 - 54 - JAVI FERNANDEZ NAVARRO 03:57:00 1159

50 - 55 - LLORENç CAñíS 03:57:00 1213

51 - 56 - RAMóN BORREGUERO SANCHEZ 03:57:13 1230

52 - 57 - RICARD CASTAñO SOLER 03:57:41 1267

53 - 58 - JOSEP GARCIA BORRAS 03:57:47 1093

54 - 59 - FRANCESC CAZORLA MUñOZ 03:58:09 1324

55 - 60 - FERNANDO BARCOS NAVARRO 03:58:53 1172

56 - 61 - RUBEN GARCIA CALDERON 03:58:54 1176

57 - 62 - JUAN MARQUEZ LOPEZ 03:59:12 1198

58 - 64 - ANGEL ARUMI JIMENEZ 03:59:46 1325

59 - 65 - ALBERT ARUMí CATALà 03:59:52 1013

60 - 66 - ANTONI BADIA MUNIENTE 03:59:54 1312

61 - 67 - GUIFRÉ PORQUERES PLANELLES 04:00:55 1194

62 - 69 - RAüL JORGE ANGUITA 04:01:07 1254

63 - 70 - GUILLEM PADROSA DANéS 04:01:10 1322

64 - 71 - MARIUS GAMISSANS SALA 04:01:15 1147

65 - 72 - GUILLEM LOPEZ FAGEDA 04:01:32 1148

66 - 74 - ISMAEL ALZINA CARRERAS 04:03:33 1299

67 - 75 - ROGER GIL BERTRAN 04:03:52 1231

68 - 76 - JONATHAN ANTONI CIERCO 04:04:10 1041

69 - 78 - PAU SERRA ESCANDELL 04:05:47 1098

70 - 79 - GENíS BAYéS COSTA 04:05:48 1109

71 - 80 - JUAN MIGUEL DE LA TORRE MORALES 04:05:55 1216

72 - 81 - ISIDRO GIL PÉREZ 04:07:17 1320

73 - 84 - ANGEL BOTELLO ARMENGOL 04:08:10 1032

74 - 85 - ALEJANDRO AZORÍN RODRÍGUEZ 04:08:00 1100

75 - 86 - ROBERT PLANAS COLL 04:08:26 1049

76 - 87 - DAVID MUñOZ CASELLAS 04:08:35 1319

77 - 88 - IGNASI SERRANO COLL 04:08:39 1323

78 - 89 - ALBERT TORRENS VIVES 04:08:54 1296

79 - 90 - JOAN AGUSTí NúñEZ GENESTóS 04:09:28 1079

80 - 91 - RAFAEL LOPéZ RECHE 04:10:02 1242

81 - 93 - PEDRO MOLINA RODRIGUEZ 04:10:41 1087

82 - 94 - IGNACIO FABEIRO GONZALEZ 04:10:56 1277

83 - 96 - OSCAR MORAL HIDALGO 04:11:06 1257

84 - 97 - DIEGO BARROSO BERMEJO 04:11:25 1059

85 - 98 - NIS MATEU BOIXADERAS 04:11:34 1139

86 - 100 - ÒSCAR GONZàLEZ GONZàLEZ 04:13:30 1027

87 - 101 - SERGIO ASENSIO ROMERO 04:13:31 1184

88 - 102 - JOSEP BAROT CASANY 04:13:51 1021

89 - 103 - JOSEP A JARAMILLO CALDERóN 04:14:02 1188

90 - 104 - DANIEL RODRíGUEZ PEREZ 04:14:13 1010

91 - 105 - ANDREU LóPEZ ANADóN 04:14:13 1009

92 - 106 - JOSEP FARRERA SINFREU 04:14:42 1270

93 - 107 - JUAN MANZANO RUBIO 04:15:27 1131

94 - 108 - DAVID DE LA COBA ALQUEZAR 04:15:40 1285

95 - 109 - ROBERTO BAÑOS GONZALEZ 04:15:47 1180

96 - 110 - JAUME CORELLA VIVó 04:16:08 1171

97 - 111 - JORDI CASACUBERTA JIMENEZ 04:16:13 1282

98 - 112 - DAVID MIGUEL SUAREZ 04:16:17 1197

99 - 113 - ORIOL FERNANDEZ HOSPITAL 04:16:44 1089

100 - 114 - MARCEL BUENO BRUGUES 04:16:44 1133

101 - 115 - JUAN ANTONIO VIÑUELA GONZALEZ 04:16:48 1206

102 - 116 - LLORENç REIXACH CRUZ 04:17:25 1016

103 - 117 - BERNAT GORDUN QUILES 04:17:40 1310

104 - 118 - ENRIC COROMINAS I BOSCH 04:17:45 1046

105 - 119 - ADRIA NOTARIO BARDAJI 04:17:59 1256

106 - 120 - DAVID GAZQUEZ GARCIA 04:18:01 1150

107 - 121 - DANIEL CARBONELL MERINO 04:18:04 1007

108 - 123 - PERE LOPEZ SORIANOO 04:18:41 1053

109 - 124 - NIL GRI LLEBOT 04:18:45 1045

110 - 127 - DAVID VILCHEZ MORENO 04:19:43 1281

111 - 128 - YAN MAURAKH - 04:19:49 1328

112 - 129 - FERRAN MELERO VIGARA 04:20:31 1137

113 - 130 - JOSE PEREZ GONZALEZ 04:20:34 1048

114 - 131 - JULIA FRANCH NADAL 04:20:55 1268

115 - 132 - ANTON VILARDELL AGULLó 04:21:36 1028

116 - 133 - DAVID LEIVA ROLDAN 04:21:37 1075

117 - 134 - ANTONIO MORALES MARTINEZ 04:21:54 1138

118 - 135 - DIEGO CARRETERO RODRIGUEZ 04:22:08 1301

119 - 136 - ALEJANDRO RUBIO GONZALEZ 04:22:19 1293

120 - 137 - AURELIAN OANCEA . 04:22:46 1333

121 - 138 - OLIVER GALLEGO NAJAR 04:23:55 1014

122 - 140 - ABEL CANALDA 04:26:23 1104

123 - 141 - DAVID CARRERAS GONZáLEZ 04:26:29 1108

124 - 142 - TONI MARQUEZ JIMENEZ 04:26:30 1039

125 - 143 - JAUME SOBRERROCA ALSINA 04:26:48 1235

126 - 144 - TOMAS LOPEZ ZORNOZA 04:27:59 1154

127 - 145 - TONI SALAS PALLICER 04:27:59 1248

128 - 146 - KRLOS MARTíNEZ GUERRA 04:28:27 1149

129 - 147 - TONI PORRAS JIMENEZ 04:29:10 1208

130 - 148 - STEFAN GABRIEL DEL BRIO DI NOTO 04:29:14 1221

131 - 149 - JUAN CARLOS ABELEDO SANCHEZ 04:29:21 1167

132 - 150 - JAUME BARRIACH GAYA 04:29:49 1174

133 - 151 - JOAN MARESMA NUALART 04:29:49 1012

134 - 152 - PEPE PORRAS JIMENEZ 04:30:04 1219

135 - 153 - ISIDRE ESCAYOLA GARCIA DEL PRADO 04:30:33 1067

136 - 154 - PLACI ABELEDO SANCHEZ 04:30:41 1160

137 - 156 - MOISES OLMEDA 04:31:32 1008

138 - 157 - JUAN ANTONIO CAZORLA ZAMBRANA 04:31:38 1289

139 - 158 - ALBERT SALA SIDERA 04:31:42 1063

140 - 159 - XAVIER SOLER I BOSCH 04:32:07 1120

141 - 160 - DANIEL BRUN RAMIREZ 04:32:14 1018

142 - 161 - MARCEL TORT FERNANDEZ 04:32:21 1141

143 - 162 - XAVIER FABRE HEREDIA 04:32:32 1222

144 - 162 - VICTOR RODRIGUEZ BARCONES 04:32:34 1121

145 - 163 - JOSE ANGEL REVELLES NúñEZ 04:32:59 1042

146 - 164 - CRISTóBAL M. MACARRO CANO 04:33:03 1011

147 - 165 - XAVIER PUIG ESCUDERO 04:33:38 1086

148 - 166 - SALVATORE MESEGUE VALERO 04:33:38 1291

149 - 167 - GUIDO CANCARINI CAPPONI 04:33:41 1136

150 - 168 - JOAN CALLEJON BOQUERA 04:34:46 1240

151 - 169 - JORGE FERNANDEZ LIROLA 04:34:59 1061

152 - 170 - ROGER BATALLA CARABASSA 04:35:06 1122

153 - 171 - JOSEP CALI CABEZA 04:35:07 1085

154 - 172 - MARC CASES 04:35:09 1261

155 - 173 - MARC CASANOVA BELLO 04:35:11 1054

156 - 174 - JORDI TOLDOS BUENO 04:35:23 1082

157 - 175 - ALEIX DANOT CUCH 04:36:13 1260

158 - 176 - XAVIER CAMPS BAGET 04:36:16 1253

159 - 177 - JORDI DE LA VEGA ARUS 04:36:48 1279

160 - 178 - SERGI CAPDEVILA NORTES 04:37:43 1132

161 - 179 - ALBERT MESTRES SUGRAñES 04:37:58 1004

162 - 180 - XEVI PALLAROLS PALLàS 04:38:03 1292

163 - 181 - IGNASI BASSAS BUJ 04:39:45 1129

164 - 182 - MIQUEL RAMOS LOPEZ 04:40:08 1173

165 - 184 - F. XAVIER FABREGAT CASAL 04:40:50 1127

166 - 185 - CARLOS CARRASCOSA TOMAS 04:40:51 1243

167 - 186 - PERE FRANCH ANTONELL 04:41:18 1055

168 - 187 - TONI MAESTRE GARCIA 04:41:31 1050

169 - 188 - DAVID GARCIA FERNANDEZ 04:41:59 1020

170 - 189 - JAUME FABREGAT GOU 04:42:01 1196

171 - 190 - XAVI DÍAZ VENDRELL 04:42:02 1170

172 - 191 - ALBERT COLS VAZQUEZ 04:42:07 1307

173 - 192 - ENRIC BLANCAFORT MUMBRIU 04:43:28 1200

174 - 193 - AITOR MATA MARTÍNEZ 04:43:32 1088

175 - 195 - DAVID DIAZ MAYOR 04:43:48 1030

176 - 197 - ISMAEL COBO PIMENTEL 04:44:07 1095

177 - 198 - JOAN BULDó I POLLS 04:44:45 1166

178 - 199 - JORDI FRANCH ANTONELL 04:44:45 1068

179 - 200 - PERE SEGURA GARSABALL 04:45:08 1273

180 - 201 - SERGI ALSINA LLORENTE 04:45:08 1060

181 - 202 - RAFO IGLESIAS LOBO 04:45:17 1305

182 - 203 - JAVITO RUIZ 04:45:26 1314

183 - 205 - JULIO LLORENTE CASTILLO 04:46:08 1084

184 - 207 - JAN OLIVERES GONZALEZ 04:46:15 1334

185 - 208 - PACO GARCIA RUIZ 04:46:33 1247

186 - 209 - TONI DONIGA 04:49:27 1233

187 - 210 - DAVID DONIGA VERA 04:49:27 1217

188 - 211 - ARNAU GRANé MASFRET 04:49:33 1265

189 - 212 - MOISES PLUJA BLANCH 04:50:16 1283

190 - 214 - DAVID ROS HOMS 04:52:00 1207

191 - 215 - LLUIS RIBES CASTRO 04:52:46 1123

192 - 216 - GERARD GARCIA MONTSERRATE 04:56:00 1263

193 - 217 - BRIAN MEDINA GRANADOS 04:56:08 1262

194 - 218 - ADAM CARBONELL VISO 04:58:36 1244

195 - 220 - SERGI GALLEGO ARJONA 04:59:24 1215

196 - 221 - ROGER GARCIA SUBIRANA 05:00:23 1258

197 - 222 - MARC MOLINE RODRIGUEZ 05:00:41 1259

198 - 223 - RAUL JIMENEZ RIVERO 05:01:41 1107

199 - 224 - PEDRO MIGUEL PERELLó PALLISER 05:03:59 1295

200 - 225 - TONI AMBLAS MOLINA 05:04:08 1294

201 - 226 - MARC MASNOU RUBIó 05:04:11 1113

202 - 227 - XEVI HERNANDEZ CLOTA 05:04:32 1115

203 - 228 - ALBERT CUTRINA RUBIO 05:04:33 1114

204 - 229 - JOSEP PERELLO 05:05:25 1309

205 - 230 - JORDI RIU MUDARRA 05:05:36 1019

206 - 231 - EDUARD CAPDEVILA ROMEU 05:05:48 1057

207 - 232 - SALVA PILES MARTIN 05:06:43 1241

208 - 234 - TONI RUIZ JOVER 05:07:31 1040

209 - 235 - CARLES RAMOS SOLE 05:08:12 1003

210 - 237 - VICTOR RUBIA GARCíA 05:09:37 1143

211 - 238 - JORDI ANGLADA CASAS 05:10:09 1255

212 - 239 - JOSé MARíA FERRER GIRóN 05:12:09 1026

213 - 240 - DANIEL JEREZ CEBALLOS 05:12:10 1034

214 - 241 - ALBERTO PLAZA GAMITO 05:12:14 1225

215 - 242 - JUSTO MARTIN SIMON 05:12:23 1073

216 - 243 - DAVID LEO HEREDIA 05:12:49 1106

217 - 244 - MARC SERRAT DIAZ 05:13:40 1005

218 - 245 - ALBERT SOLER FREIXER 05:14:00 1035

219 - 246 - ADRIÀ SOLER ABIAN 05:14:06 1118

220 - 247 - XAVI ALVAREZ ESTANY 05:14:17 1264

221 - 248 - ORIOL BAIXAS MORALES 05:15:33 1135

222 - 249 - JOHN FÉLIX BIGGS GÓMEZ 05:16:12 1158

223 - 252 - IñAKI ALONSO DE LOS SANTOS 05:20:01 1116

224 - 255 - GONZALO VELASCO REINA 05:21:59 1274

225 - 256 - FRANCISCO ANTONIO BARCELÓ MARTÍNEZ 05:22:19 1218

226 - 257 - ALFONSO AGUILERA GARCIA 05:25:18 1110

227 - 258 - CéSAR ARRANZ FERNANDEZ 05:25:19 1112

228 - 259 - IVAN JIMéNEZ RODà 05:28:49 1193

229 - 260 - JOAN BACH CODINA 05:28:53 1316

230 - 262 - JORDI FIGULS GOMEZ 05:38:28 1183

231 - 263 - JOSEP NAVARRO GARCíA 05:39:10 1076

232 - 264 - FRANCESC XAVIER MARTíNEZ CAPABLO 05:43:42 1052

233 - 265 - DAVID COSTA SAMBLAS 05:47:32 1179

234 - 267 - ADRIA SALANUEVA 05:47:56 1266

235 - 268 - SANTIAGO RIOS AZUARA 05:50:22 1029

236 - 270 - JULIO BERRAL LOPEZ 06:00:29 1178

237 - 271 - MIGUEL ÁNGEL PéREZ BELBIS 06:00:31 1177

Dones

# - Posició P.C. - Participant Temps Dorsal

1 - 19 - ANGELS LLOBERA VICENS 03:29:25 1330

2 - 27 - CAROLINA RIUS HERNANDEZ 03:36:45 1308

3 - 35 - CLAUDIA BOSCH RODERO 03:42:39 1224

4 - 43 - SUSANA MORENO MORATONA 03:48:11 1151

5 - 63 - JELENA MALYSEVA -- 03:59:45 1300

6 - 73 - SANDRA MARIA VALENZUELA MENA 04:03:23 1195

7 - 77 - EROLA TORTADèS VERDAGUER 04:04:18 1002

8 - 82 - ELENA SANCHEZ GOMEZ 04:07:21 1315

9 - 92 - EVA MARIA TAPIA LUQUE 04:10:26 1239

10 - 96 - ROCIO RIOS ORTEGA 04:11:18 1043

11 - 99 - ALICIA GARRIDO SERRA 04:12:20 1313

12 - 122 - TERESA FORN MUNNE 04:18:15 1290

13 - 125 - NEUS PEIRÓ PIFARRÉ 04:18:49 1311

14 - 155 - SARA GARRE PELEGRINA 04:31:30 1031

15 - 183 - MARTA SEGURA PARRA 04:40:10 1077

16 - 196 - MARIBEL ALFARO NOGUERA 04:43:55 1234

17 - 204 - THAIS JORBA DELGADO 04:45:51 1096

18 - 213 - PAULA ALSINA ROSANAS 04:50:32 1070

19 - 250 - ELISABET BUERA PORTA 05:19:56 1298

20 - 251 - CRISTINA GARCIA PEREZ 05:19:56 1081

21 - 253 - CARLA LóPEZ PéREZ 05:20:02 1074

22 - 254 - ANNA TRISTANY CODINA 05:20:12 1185

23 - 261 - ISABEL COVAS BERNAL 05:29:34 1317

24 - 266 - MARTA ESCALE MORALES 05:47:35 1209

Publicitat